Flag for U.S.A. Weather past 2 weeks in Riverside, California, U.S.A.

Now
76 °F

Scattered clouds.


Feels Like: 77 °F
Forecast: 50 / 77 °F
Wind: 12 mph from Northwest

Location: Riverside Municipal Airport

Current Time: Mar 31, 2015 at 6:11:17 PM

Latest Report: Mar 31, 2015 at 4:53 PM


Visibility: 10 mi

Pressure: 29.88 "Hg

Humidity: 33%

Dew point: 45 °F

Location of RiversideLocation

Historic Weather in Riverside — Graph

°F

Riverside temperature yesterday

Maximum temperature yesterday: 86 °F (at 1:53 PM)
Minimum temperature yesterday: 56 °F (at 5:53 AM)
Average temperature yesterday: 69 °F

Past Weeks' High & Low Weather Summary

 TemperatureHumidityPressure
High93 °F (Mar 26, 4:53 PM)96% (Mar 20, 7:53 AM)30.18 "Hg (Mar 20, 7:53 AM)
Low51 °F (Mar 24, 6:53 AM)7% (Mar 26, 4:53 PM)29.83 "Hg (Mar 16, 4:53 PM)
Average68 °F50%30.00 "Hg
* Reported Mar 16 4:53 PM — Mar 31 4:53 PM, Riverside, Weather by CustomWeather, © 2015

Note: Actual official high and low records may vary slightly from our data, if they occured in-between our weather recording intervals... More about our weather records

Advertising

Riverside weather history for previous 24 hours

 ConditionsComfort  
Time TempWeatherWind HumidityBarometerVisibility
4:53 PM
Tue, Mar 31
76 °FScattered clouds.12 mph33%29.88 "Hg10 mi
3:53 PM78 °FScattered clouds.14 mph24%29.88 "Hg10 mi
2:53 PM81 °FPartly sunny.10 mph25%29.89 "Hg10 mi
1:53 PM83 °FPartly sunny.7 mph19%29.91 "Hg10 mi
12:53 PM79 °FPartly sunny.3 mph24%29.93 "Hg10 mi
11:53 AM76 °FScattered clouds.No wind35%29.96 "Hg10 mi
10:53 AM70 °FSunny.5 mph49%29.98 "Hg9 mi
9:53 AM67 °FPartly sunny.5 mph53%29.98 "Hg10 mi
8:53 AM62 °FPartly sunny.No wind67%29.97 "Hg10 mi
7:53 AM57 °FPartly sunny.No wind74%29.96 "Hg10 mi
6:53 AM55 °FPassing clouds.No wind80%29.95 "Hg10 mi
5:53 AM56 °FClear.No wind81%29.93 "Hg10 mi
4:53 AM56 °FClear.No wind84%29.93 "Hg9 mi
3:53 AM57 °FClear.3 mph81%29.94 "Hg10 mi
2:53 AM59 °FClear.No wind75%29.95 "Hg10 mi
1:53 AM60 °FClear.3 mph72%29.96 "Hg10 mi
12:53 AM62 °FClear.No wind73%29.97 "Hg10 mi
11:53 PM
Mon, Mar 30
63 °FClear.5 mph73%29.97 "Hg10 mi
10:53 PM65 °FClear.5 mph68%29.97 "Hg10 mi
9:53 PM68 °FClear.No wind57%29.96 "Hg10 mi
8:53 PM69 °FClear.No wind57%29.95 "Hg10 mi
7:53 PM71 °FSunny.5 mph49%29.93 "Hg10 mi
6:53 PM74 °FSunny.7 mph45%29.90 "Hg10 mi
Weather by CustomWeather, © 2015

See weather overviewHow to use our weather pages